Total_Precipitation_Accumulation
2.37 2.50 2.28 2.03 2.00 1.96 2.27 2.71 3.02 2.74 2.34 2.10 1.95 1.91 1.99 2.08 2.30 2.12 2.19 2.22 1.99 1.76 1.55 1.47 1.43 1.40 1.38 1.41 1.49 1.52 1.55 1.67 1.88 2.11 2.33 2.59 2.90 3.22
2.52 2.58 2.41 2.15 2.21 2.05 2.12 2.45 2.75 2.96 2.62 1.93 1.96 1.89 2.00 1.90 2.22 2.05 2.20 2.20 1.89 1.70 1.50 1.42 1.36 1.32 1.30 1.30 1.33 1.38 1.41 1.40 1.47 1.60 1.75 1.89 2.00 2.17
2.53 2.48 2.44 2.44 2.42 2.25 2.33 2.47 2.55 2.85 2.82 2.18 2.03 2.14 2.25 2.21 2.28 2.16 2.06 2.05 1.86 1.79 1.53 1.39 1.30 1.24 1.23 1.21 1.23 1.20 1.23 1.25 1.27 1.33 1.42 1.49 1.54 1.58
2.81 2.94 2.68 2.65 2.64 2.45 2.47 2.47 2.51 2.74 2.77 2.55 2.32 2.32 2.39 2.36 2.37 2.18 1.82 1.73 1.76 1.90 1.72 1.52 1.38 1.26 1.20 1.16 1.16 1.14 1.15 1.18 1.21 1.21 1.24 1.29 1.36 1.39
2.64 2.89 2.87 2.99 2.74 2.74 2.65 2.52 2.50 2.47 2.66 2.53 2.33 2.50 2.52 2.49 2.45 2.09 1.91 1.96 1.76 1.98 1.91 1.61 1.43 1.31 1.21 1.12 1.08 1.06 1.05 1.09 1.14 1.19 1.19 1.17 1.18 1.21
2.38 2.50 2.61 2.89 2.86 2.89 2.72 2.72 2.80 2.79 2.85 2.74 2.61 2.68 2.80 2.83 2.71 2.36 2.21 2.10 1.96 1.76 1.86 1.66 1.56 1.48 1.34 1.18 1.09 1.03 1.03 1.04 1.07 1.11 1.16 1.19 1.18 1.16
2.34 2.30 2.28 2.51 2.59 2.64 2.40 2.55 2.80 2.83 2.84 2.79 2.73 2.76 2.78 2.95 2.67 2.49 2.34 2.31 2.18 1.90 1.81 1.59 1.53 1.43 1.39 1.37 1.27 1.16 1.07 1.06 1.09 1.11 1.11 1.12 1.15 1.21
2.55 2.48 2.35 2.29 2.28 2.32 2.34 2.42 2.55 2.55 2.59 2.66 2.60 2.63 2.70 2.85 3.00 2.88 2.67 2.46 2.20 1.91 1.93 1.70 1.56 1.48 1.36 1.24 1.35 1.31 1.19 1.12 1.08 1.10 1.13 1.14 1.16 1.18
2.50 2.48 2.20 2.06 2.28 2.19 2.36 2.39 2.20 2.13 2.13 2.25 2.27 2.31 2.75 3.05 3.37 3.06 2.88 2.68 2.38 2.19 2.12 1.77 1.61 1.51 1.36 1.32 1.46 1.28 1.17 1.10 1.06 1.08 1.13 1.15 1.16 1.18
2.12 2.24 2.20 2.11 2.15 2.25 2.19 1.97 1.78 1.79 1.83 1.72 1.73 2.00 2.44 3.01 3.32 3.28 3.26 3.00 2.65 2.24 2.05 1.77 1.56 1.47 1.35 1.37 1.54 1.43 1.28 1.15 1.07 1.05 1.03 1.05 1.09 1.13
1.88 1.89 1.94 1.83 1.98 2.07 1.97 1.76 1.63 1.59 1.63 1.64 1.60 1.78 2.05 2.39 2.81 3.03 2.92 2.73 2.34 1.91 1.79 1.68 1.54 1.58 1.49 1.38 1.38 1.52 1.40 1.27 1.19 1.12 1.08 1.07 1.07 1.12
2.00 1.99 2.06 1.84 1.76 1.71 1.64 1.66 1.49 1.40 1.52 1.50 1.45 1.47 1.57 1.86 2.31 2.41 2.42 2.49 2.23 1.89 1.62 1.68 1.60 1.78 1.71 1.43 1.31 1.33 1.36 1.40 1.38 1.28 1.21 1.20 1.23 1.09
1.78 1.68 1.73 1.76 1.55 1.40 1.38 1.36 1.30 1.35 1.43 1.41 1.33 1.30 1.43 1.58 1.75 2.01 2.21 2.23 2.12 1.78 1.59 1.79 1.69 1.76 1.80 1.54 1.34 1.29 1.27 1.27 1.30 1.35 1.39 1.39 1.37 1.25
1.76 1.76 1.81 1.83 1.57 1.41 1.26 1.15 1.19 1.18 1.20 1.29 1.25 1.19 1.24 1.35 1.58 1.86 2.15 2.24 2.16 2.02 1.99 2.02 1.90 1.85 1.86 1.69 1.47 1.31 1.30 1.32 1.35 1.38 1.42 1.61 1.56 1.51
1.73 2.04 2.04 1.97 1.75 1.47 1.36 1.36 1.28 1.15 1.18 1.22 1.18 1.13 1.18 1.34 1.62 1.94 2.19 2.39 2.34 2.16 2.09 2.03 2.00 2.05 2.10 1.87 1.63 1.51 1.49 1.43 1.38 1.40 1.44 1.48 1.49 1.54
1.68 1.94 2.09 2.10 1.98 1.77 1.68 1.59 1.37 1.29 1.37 1.36 1.37 1.40 1.50 1.64 1.79 1.94 2.15 2.33 2.40 2.22 2.13 2.10 2.12 2.24 2.17 2.01 1.90 1.74 1.63 1.57 1.55 1.59 1.64 1.62 1.58 1.52
1.85 2.03 2.18 2.28 2.28 2.21 2.12 2.03 1.91 1.76 1.60 1.56 1.62 1.61 1.65 1.74 1.80 1.95 2.18 2.30 2.25 2.04 2.02 2.08 2.17 2.28 2.29 2.21 2.00 1.70 1.61 1.54 1.54 1.67 1.72 1.65 1.54 1.48
1.82 1.93 2.17 2.36 2.44 2.52 2.55 2.44 2.21 2.03 1.87 1.84 1.79 1.76 1.79 1.79 1.82 1.97 2.20 2.31 2.20 2.04 1.97 1.99 2.19 2.37 2.38 2.20 1.89 1.68 1.57 1.47 1.42 1.51 1.56 1.53 1.40 1.28
1.66 1.79 1.92 2.03 2.23 2.45 2.52 2.49 2.28 2.16 2.18 2.14 2.05 2.01 2.02 2.02 2.02 2.12 2.31 2.42 2.38 2.25 2.18 2.18 2.24 2.29 2.16 1.81 1.52 1.42 1.44 1.39 1.43 1.44 1.40 1.37 1.31 1.26
1.41 1.59 1.78 1.92 2.08 2.32 2.47 2.51 2.45 2.38 2.40 2.43 2.39 2.31 2.28 2.22 2.13 2.08 2.22 2.34 2.39 2.37 2.33 2.26 2.15 2.14 2.11 1.94 1.76 1.54 1.44 1.50 1.52 1.51 1.45 1.43 1.42 1.47
1.33 1.38 1.46 1.66 1.88 2.11 2.35 2.52 2.53 2.44 2.38 2.42 2.40 2.33 2.31 2.30 2.19 2.08 2.14 2.33 2.40 2.36 2.21 2.02 1.94 2.15 2.34 2.47 2.23 1.77 1.57 1.58 1.64 1.65 1.66 1.73 1.63 1.56
1.42 1.42 1.52 1.69 1.87 2.08 2.28 2.39 2.45 2.47 2.43 2.40 2.33 2.26 2.24 2.23 2.10 2.05 2.07 2.15 2.20 2.21 2.17 2.16 2.34 2.50 2.53 2.50 2.17 1.85 1.72 1.74 1.82 1.89 1.83 1.73 1.63 1.51
1.51 1.52 1.57 1.66 1.83 2.03 2.18 2.29 2.33 2.38 2.41 2.41 2.36 2.27 2.23 2.25 2.20 2.15 2.14 2.14 2.14 2.15 2.30 2.39 2.42 2.51 2.47 2.42 2.34 2.18 2.03 1.96 1.96 1.91 1.72 1.59 1.49 1.40